Change the Weather History Date:

Friday, June 28, 2013

  Actual Average Record
Temperature  
Mean Temperature 70 °F -  
Max Temperature 73 °F 78 °F 97 °F (1963)
Min Temperature 68 °F 61 °F 48 °F (2014)
Cooling Degree Days 6    
Growing Degree Days 20 (Base 50)    
Moisture  
Dew Point 69 °F    
Average Humidity 97    
Maximum Humidity 100    
Minimum Humidity 88    
Precipitation  
Precipitation 0.53 in - - ()
Sea Level Pressure  
Sea Level Pressure 29.61 in    
Wind  
Wind Speed 11 mph (South)    
Max Wind Speed 18 mph    
Max Gust Speed 28 mph    
Visibility 2 miles    
Events Fog , Rain , Thunderstorm    
Averages and records for this station are not official NWS values.
T = Trace of Precipitation, MM = Missing Value Source: NWS Daily Summary

Daily Weather History Graph

Daily Weather History Graph

Search for Another Location

Airport or City:

Trip Planner

Search our weather history database for the weather conditions in past years. The results will help you decide how hot, cold, wet, or windy it might be!

Date:

Astronomy

Jun. 28, 2013 Rise Set
Actual Time 5:11 AM EDT 8:22 PM EDT
Civil Twilight 4:37 AM EDT 8:56 PM EDT
Nautical Twilight 3:53 AM EDT 9:40 PM EDT
Astronomical Twilight 3:01 AM EDT 10:32 PM EDT
Moon 11:44 PM EDT (6/28) 11:21 AM EDT (6/28)
Length of Visible Light 16h 18m
Length of Day
15h 10m
Waning Gibbous, 66% of the Moon is Illuminated
Jun 28
Waning Gibbous
Jun 30
Last Quarter
Jul 8
New
Jul 15
First Quarter
Jul 22
Full

Hourly Weather History & Observations

Time (EDT) Temp. Dew Point Humidity Pressure Visibility Wind Dir Wind Speed Gust Speed Precip Events Conditions
12:14 AM 68.0 °F 68.0 °F 100% 29.74 in 2.0 mi SE 8.1 mph - N/A   Overcast
12:27 AM 68.0 °F 66.2 °F 94% 29.73 in 1.0 mi SSE 8.1 mph - N/A   Overcast
12:42 AM 68.0 °F 66.2 °F 94% 29.72 in 3.0 mi ESE 6.9 mph - N/A   Overcast
12:48 AM 68.0 °F 68.0 °F 100% 29.72 in 1.8 mi SE 5.8 mph - N/A Thunderstorm Overcast
12:53 AM 68.0 °F 66.9 °F 96% 29.72 in 0.8 mi SE 5.8 mph - N/A Thunderstorm Overcast
1:04 AM 68.0 °F 68.0 °F 100% 29.73 in 1.0 mi South 6.9 mph - 0.00 in Rain Light Rain
1:30 AM 68.0 °F 68.0 °F 100% 29.69 in 1.0 mi East 8.1 mph - 0.05 in Rain , Thunderstorm Light Rain
1:53 AM 68.0 °F 68.0 °F 100% 29.69 in 4.0 mi ESE 3.5 mph - 0.32 in Rain , Thunderstorm Light Thunderstorms and Rain
2:25 AM 69.8 °F 68.0 °F 94% 29.66 in 2.5 mi ESE 4.6 mph - 0.07 in Rain , Thunderstorm Light Rain
2:37 AM 69.8 °F 69.8 °F 100% 29.66 in 3.0 mi SE 9.2 mph - 0.13 in Rain Heavy Rain
3:46 AM 71.6 °F 69.8 °F 94% 29.64 in 5.0 mi South 10.4 mph 19.6 mph 0.00 in   Overcast
3:53 AM 71.1 °F 70.0 °F 96% 29.63 in 5.0 mi South 15.0 mph 23.0 mph 0.00 in   Overcast
4:53 AM 71.1 °F 70.0 °F 96% 29.62 in 5.0 mi SSW 16.1 mph 20.7 mph N/A   Overcast
5:53 AM 71.1 °F 70.0 °F 96% 29.62 in 4.0 mi SSW 12.7 mph - 0.00 in   Overcast
6:15 AM 71.6 °F 69.8 °F 94% 29.61 in 2.0 mi South 11.5 mph - N/A   Overcast
6:24 AM 69.8 °F 69.8 °F 100% 29.61 in 1.5 mi South 11.5 mph - N/A   Overcast
6:50 AM 69.8 °F 69.8 °F 100% 29.61 in 0.5 mi South 11.5 mph - N/A Fog Fog
6:53 AM 70.0 °F 69.1 °F 97% 29.61 in 0.5 mi South 10.4 mph 19.6 mph N/A Fog Fog
7:27 AM 71.6 °F 69.8 °F 94% 29.60 in 1.0 mi South 11.5 mph - N/A   Overcast
7:53 AM 71.1 °F 70.0 °F 96% 29.60 in 1.0 mi SSW 18.4 mph 24.2 mph 0.02 in Rain Light Rain
8:01 AM 71.6 °F 69.8 °F 94% 29.60 in 2.0 mi SSW 15.0 mph 27.6 mph 0.04 in Rain Rain
8:13 AM 69.8 °F 68.0 °F 94% 29.60 in 3.0 mi SSW 16.1 mph 27.6 mph 0.08 in Rain Rain
8:53 AM 70.0 °F 69.1 °F 97% 29.59 in 3.0 mi South 11.5 mph - 0.08 in   Overcast
9:12 AM 69.8 °F 68.0 °F 94% 29.59 in 2.5 mi South 15.0 mph 24.2 mph N/A   Overcast
9:27 AM 69.8 °F 68.0 °F 94% 29.58 in 1.5 mi South 16.1 mph 25.3 mph 0.00 in Rain Light Rain
9:37 AM 69.8 °F 68.0 °F 94% 29.58 in 3.0 mi South 13.8 mph - 0.00 in Rain Light Rain
9:53 AM 70.0 °F 69.1 °F 97% 29.57 in 7.0 mi South 13.8 mph 20.7 mph 0.00 in   Overcast
10:18 AM 69.8 °F 69.8 °F 100% 29.58 in 2.0 mi South 13.8 mph - 0.04 in Rain Heavy Rain
10:38 AM 69.8 °F 69.8 °F 100% 29.58 in 1.0 mi South 17.3 mph 24.2 mph 0.09 in Rain Light Rain
10:53 AM 71.1 °F 69.1 °F 93% 29.57 in 2.0 mi South 13.8 mph 21.9 mph 0.10 in Rain Light Rain
10:57 AM 71.6 °F 69.8 °F 94% 29.58 in 1.2 mi South 11.5 mph 21.9 mph 0.00 in Rain Light Rain
11:38 AM 69.8 °F 69.8 °F 100% 29.58 in 0.8 mi South 11.5 mph - 0.00 in   Overcast
11:53 AM 70.0 °F 69.1 °F 97% 29.57 in 0.8 mi SSW 17.3 mph 21.9 mph 0.00 in   Overcast
12:18 PM 69.8 °F 69.8 °F 100% 29.57 in 1.0 mi SSW 16.1 mph 20.7 mph N/A   Overcast
12:53 PM 70.0 °F 69.1 °F 97% 29.57 in 1.0 mi SSW 15.0 mph 21.9 mph N/A   Overcast
1:53 PM 71.1 °F 70.0 °F 96% 29.56 in 2.5 mi SSW 13.8 mph 21.9 mph N/A   Overcast
2:46 PM 73.4 °F 69.8 °F 88% 29.56 in 3.0 mi SSW 16.1 mph 21.9 mph N/A   Overcast
2:53 PM 73.0 °F 71.1 °F 93% 29.56 in 3.0 mi SSW 12.7 mph 21.9 mph N/A   Overcast
3:53 PM 73.0 °F 70.0 °F 90% 29.56 in 5.0 mi SSW 17.3 mph 21.9 mph N/A   Overcast
4:53 PM 71.1 °F 69.1 °F 93% 29.56 in 2.5 mi SSW 16.1 mph - N/A   Overcast
5:01 PM 71.6 °F 69.8 °F 94% 29.56 in 2.0 mi SSW 10.4 mph - N/A   Overcast
5:53 PM 70.0 °F 69.1 °F 97% 29.55 in 1.5 mi SSW 13.8 mph - N/A   Overcast
6:53 PM 70.0 °F 69.1 °F 97% 29.55 in 1.5 mi SSW 11.5 mph - N/A   Overcast
7:53 PM 69.1 °F 68.0 °F 96% 29.57 in 1.0 mi South 12.7 mph - N/A   Overcast
8:53 PM 69.1 °F 68.0 °F 96% 29.57 in 1.0 mi SSW 11.5 mph - N/A   Overcast
9:53 PM 69.1 °F 69.1 °F 100% 29.58 in 1.2 mi South 13.8 mph - 0.01 in   Overcast
10:53 PM 69.1 °F 69.1 °F 100% 29.59 in 1.5 mi SSW 10.4 mph - N/A   Overcast
11:30 PM 69.8 °F 69.8 °F 100% 29.59 in 2.0 mi South 10.4 mph - N/A   Overcast
11:45 PM 69.8 °F 69.8 °F 100% 29.59 in 1.8 mi South 11.5 mph 18.4 mph N/A   Overcast
11:53 PM 69.1 °F 69.1 °F 100% 29.59 in 1.2 mi SSW 10.4 mph - N/A   Overcast